Hovedside
METAR-TAF:

METAR-TAF

Lufthavner :

Værøy helikopterhavn. Tabbisodden

Værøy, Norge

breddegrad: 67-39-16N, lengdegrad: 12-43-37E, høyde over havet: 5 m

Gjeldene værobservasjon

Denne rapporten ble laget for 15 timer og 5 minutter siden, klokken 13:50 UTC
Vind 19 kt fra Sør-sørvest
Temperatur 10°C
Luftfuktighet 76%
Trykk 1010 hPa
Sikt 10 km eller mer
Spredte skyer i en høyde av 2500 ft
Brutte skyer i en høyde av 5900 ft

METAR: ENVR 151350Z 21019KT 9999 SCT025 BKN059 10/06 Q1010

Tid: 06:55 (04:55 UTC)


TAF: fraværende

Værobservasjoner og værvarsel for over 4000 flyplasser (METAR- og TAF-rapporter).

Tilgjengelige stasjoner er representert av de røde og gule prikkene på kartet.

Hold musepekeren over prikken for å se navnet på stasjonen.

Klikk så for å se værobservasjoner og -varsler.

For å forandre kartet kan du klikke på den grønne knappen med svart kryss for å zoome inn, på den grønne knappen med strek for å zoome ut, eller på de grønne pilene for å se tilstøtende kart.


METAR-TAF: